Location: downtown San Diego
(32.7310°N, 117.1990°W)
Time: 17:33:41
(UTC-07:00)

Cosmos 1544 Rocket - Pass Details

Date: 19 May 2017
Orbit: 606 x 630 km, 82.5° (Epoch: 25 July)

Event Time Altitude Azimuth Distance (km) Brightness Sun altitude
Rises 20:52:11 0° 1° (N) 2,870 7.5 -13.3°
Reaches altitude 10° 20:54:30 10° 9° (N) 1,961 6.5 -13.7°
Maximum altitude 20:58:39 43° 81° (E) 855 3.9 -14.4°
Enters shadow 21:00:46 24° 138° (SE) 1,247 4.5 -14.8°
